Location: Unspecified
(35.7250°N, 0.0000°E)
Time: 03:25:12
(UTC+00:00)

Explorer 7 - Pass Details

Date: 27 June 2019
Orbit: 485 x 680 km, 50.3° (Epoch: 13 October)

Event Time Altitude Azimuth Distance (km) Brightness Sun altitude
Rises 10:45:17 0° 314° (NW) 2,852 10.3 69.1°
Reaches altitude 10° 10:48:23 10° 337° (NNW) 1,990 9.6 69.6°
Maximum altitude 10:51:10 16° 14° (NNE) 1,678 9.4 70.1°
Drops below altitude 10° 10:54:02 10° 52° (NE) 2,055 10.0 70.6°
Sets 10:57:19 0° 74° (ENE) 2,995 10.7 71.1°
